Retour au catalogue

INTASAT

ActifScienceSSO
NORAD 7531·PAYLOAD·🇪🇸 Spain

Lancé Nov 15, 1974 depuis Vandenberg Space Force Base

Loading…

Prochains Passages (prochaines 24 heures)

TLE

FraisSource: Space-Track

Époque: Sep 14, 2026, 01:21 UTC

1 07531U 74089C   26257.05665962 -.00000041  00000-0  31194-4 0  9993
2 07531 101.9957 270.3558 0011211 334.7405  42.2927 12.53532151371412

Suivez INTASAT en temps réel avec AllMySat

Download on the App Store